User: anonymous   Login
Location: Unspecified
(0.0000°N, 0.0000°E)
Time: 12:37:24
(UTC+00:00)
Language:

Orbcomm A7 (FM11) - Orbit

View from above orbital plane
View from above orbital plane
View from above satellite
View from above satellite

Ground track
Ground track

The orbit data is extracted from the following two-line orbital elements,

1 25114U 97084C   18171.66709095 +.00000019 +00000-0 +52237-4 0  9994
2 25114 045.0164 279.3355 0005523 316.1481 043.8928 14.38735833073344
Epoch (UTC): 20 June 2018 16:00:36
Eccentricity: 0.0005523
inclination: 45.0164°
perigee height: 759 km
apogee height: 766 km
right ascension of ascending node: 279.3355°
argument of perigee: 316.1481°
revolutions per day: 14.38735833
mean anomaly at epoch: 43.8928°
orbit number at epoch: 7334

The dashed part of the orbit path shows where the satellite is in the earth's shadow,  

DLR